Location: Newark
(27.9675°N, 86.8869°E)
Time: 06:36:13
(UTC+00:00)

Courier 1B Rocket - Pass Details

Date: 25 October 2019
Orbit: 920 x 1202 km, 28.2° (Epoch: 12 November)

Event Time Altitude Azimuth Distance (km) Brightness Sun altitude
Exits shadow 21:33:48 39° 91° (E) 1,334 6.0 -37.1°
Drops below altitude 10° 21:37:34 10° 93° (E) 2,606 8.0 -36.2°
Sets 21:40:11 0° 93° (E) 3,557 8.9 -35.7°
